Regional Weather Roundup
Issued by NWS Sioux Falls, SD

Home | Current Version | Previous Version | Text Only | Print | Product List | Glossary On
Versions: 1 2 3 4 5 6 7 8 9 10 11 12 13 14 15 16 17 18 19 20 21 22 23 24 25 26 27 28 29 30 31 32 33 34 35 36 37 38 39 40 41 42 43 44 45 46 47 48 49 50
000
ASUS43 KFSD 202302
RWRFSD

WEATHER ROUNDUP FOR SE SOUTH DAKOTA/SW MINNESOTA/NW IOWA
NATIONAL WEATHER SERVICE SIOUX FALLS SD
500 PM CST TUE FEB 20 2018

NOTE: "FAIR" INDICATES FEW OR NO CLOUDS BELOW 12,000 FEET WITH NO
SIGNIFICANT WEATHER AND OR OBSTRUCTIONS TO VISIBILITY.


SDZ038>040-050-052>070-210000-
SOUTHEAST SOUTH DAKOTA

CITY           SKY/WX    TMP DP  RH WIND       PRES   REMARKS
BROOKINGS      FAIR       9   1  70 NW15      30.22R WCI  -8
CHAMBERLAIN    FAIR      11   2  68 W13       30.29R WCI  -4
HURON          FAIR      11   2  67 NW14      30.28R WCI  -5
MADISON        MOCLDY     9   5  85 NW15      30.22R WCI  -8
MITCHELL       FAIR      11   3  70 NW13      30.31R WCI  -4
SIOUX FALLS    FAIR      11   3  70 NW15      30.24R WCI  -5
WINNER         FAIR       9  -1  64 NW10      30.27R WCI  -5
YANKTON        FAIR      11   4  73 W16       30.29R WCI  -6
$$

MNZ071-072-080-081-089-090-097-098-210000-
SOUTHWEST MINNESOTA

CITY           SKY/WX    TMP DP  RH WIND       PRES   REMARKS
FAIRMONT       FAIR      13   7  77 NW24      30.18R WCI  -7
JACKSON        FAIR      12   5  73 NW22      30.17R WCI  -7
LUVERNE        FAIR      12   3  67 NW16G22   30.22R WCI  -4
MARSHALL       FAIR      11   5  77 NW20      30.21R WCI  -7
MONTEVIDEO     FAIR      12   3  67 N14       30.22R WCI  -3
PIPESTONE      FAIR      10   3  72 NW14      30.18R WCI  -5
REDWOOD FALLS  CLOUDY    12   5  73 NW17      30.19R WCI  -5
TRACY          FAIR      12   6  77 NW16      30.19R WCI  -4
WINDOM         FAIR      12  -2  52 CALM      30.17R
WORTHINGTON    FAIR      12   6  77 NW21      30.18R WCI  -7
$$

IAZ001>003-012>014-020>022-031-032-NEZ013-014-SDZ071-210000-
NORTHWEST IOWA

CITY           SKY/WX    TMP DP  RH WIND       PRES   REMARKS
CHEROKEE       FAIR      15   9  75 NW15      30.23R WCI   0
DENISON        FLURRIES  16  10  79 NW18      30.24R WCI  -1
ESTHERVILLE    FAIR      14   6  70 NW20G28   30.18R WCI  -3
LE MARS        CLOUDY    14   7  73 NW16G22   30.25R WCI  -2
ORANGE CITY    FAIR      14   9  79 NW18G26   30.22R WCI  -3
SHELDON        CLOUDY    12   7  79 NW18G25   30.20R WCI  -5
SIOUX CITY     CLOUDY    14   7  73 NW21      30.27R WCI  -4
SPENCER        MOCLDY    15   7  70 NW17      30.20R WCI  -1
STORM LAKE     MOCLDY    14   9  79 NW22      30.19R WCI  -4
$$

ABBREVIATIONS USED IN REMARKS
   TC - TEMPERATURE IN CELSIUS
  WCI - WIND CHILL INDEX
   HX - HEAT INDEX
  VSB - VISIBILITY




USA.gov is the U.S. government's official web portal to all federal, state and local government web resources and services.